DELTA 1 DEB

Satellite information

Favourite Embed

Satellite Type and Status

DEBRISIN ORBIT

Key statistics

Satellite DELTA 1 DEB at a glance.

Uptime

17685

Days in orbit

Revolutions

≈ 13.8

Per day

Orbit

LEO

Low Earth Orbit

Inclination

28.9

Latest

Satellite identification and parameters

Extended collection of information and parameters for DELTA 1 DEB.

Object identification

Identified? True

Debris? True

Object name: DELTA 1 DEB

International designator: 1977-065AT

Object number (NORAD): 10214

Object ID (CCSDS): 10214

Country: UNITED STATES OF AMERICA (US)

Current information (Y/N): Y

RCS size: MEDIUM

Orbital parameters

Period: 104.27 minutes

Inclination: 28.8744 deg

SMA: 7338.38 km

Apoapsis: 1328.789 km

Periapsis: 591.701 km

RAAN: 133.4909 deg

Eccentricy: 0.05022148

Argument of periapsis: 167.3121 deg

Mean anomaly: 194.0613 deg

Mean motion: 13.81027927 rev/day

Mean motion (dot): 0.0001381 rev/day2

B* drag term: 0.0048458422 1/REarth

Two-line elements (TLE)

Creation date: Dec. 14, 2025, 3:07 a.m.

Reference frame: TEME

Reference center: EARTH

Epoch: Dec. 13, 2025, 1:21 p.m. UTC

TLE line 0: 0 DELTA 1 DEB

TLE line 1: 1 10214U 77065AT 25347.55649147 .00013810 00000-0 48458-2 0 9999

TLE line 2: 2 10214 28.8744 133.4909 0502215 167.3121 194.0613 13.81027927327554

Live tracking on map

Real-time ground track for satellite DELTA 1 DEB.

In-orbit conjunctions

A list of the most updated potential collisions computed for object DELTA 1 DEB.

Target Orbit TCA Probability of collision Miss distance Type
CZ-6A DEB LEO 2025-06-20 21:09:01 0.000253747 346.0 (m) DEBRIS

Associated space launch

Japanese meteorological satellite built by Hughes Space and Communications Company

DELTA 1 DEB was lifted into orbit during the mission ‘Delta 2914 | Himawari’, on board a Delta 2914 space rocket.

The launch took place on July 14, 1977, 10:39 a.m. from Space Launch Complex 17B.

For more information about the launch, click the button.

Launch to space Delta 2914 | Himawari
Delta 2914 | Himawari

Agency: N/A

Status: Launch Successful

Launch date: July 14, 1977, 10:39 a.m. UTC

Rocket: Delta 2914

Launch pad: Space Launch Complex 17B

Location: Cape Canaveral SFS, FL, USA

...

Latest news about this satellite

There are no fresh news available about this satellite. Check back as we update our databases every day.


Newsletter sign-up

Weekly statistics, charts and insights to help you stay on top of the space industry.